• Join FlightAware (Why Join?)
  • Login
  • US Flag 
09:28AM EST


 

Airport Tracker/Info


-or-


 

Live Flight TrackerFlight Track Log ✈ ASQ5958 ✈ 03-05-2013 ✈ KSYR - KORD

Flight Track Log - Related Links

Times and Time Zones

All times are in EDT time to prevent confusion due to time zone crossing. See the ASQ5958 flight status page for this flight to view local times or setup timezone preferences in your user account.

Time Position Orientation Groundspeed Altitude Reporting Facility
EDT Latitude Longitude Course Direction KTS MPH feet Rate Location/Type
04:20PM 43.1086 -76.1006 87° East 150 173 1,000  Level Boston Center
04:21PM 43.1103 -76.0494 87° East 170 196 2,700 1,927 Climbing Boston Center
04:22PM 43.1603 -76.0469 North 261 300 4,500 2,083 Climbing Boston Center
04:23PM 43.1553 -76.1406 266° West 274 315 6,900 2,281 Climbing Boston Center
04:24PM 43.1686 -76.2439 280° West 285 328 9,100 1,382 Climbing Boston Center
04:25PM 43.1961 -76.4222 282° West 301 346 10,400 1,232 Climbing Cleveland Center
04:26PM 43.2197 -76.5575 284° West 338 389 12,200 1,750 Climbing Cleveland Center
04:27PM 43.2408 -76.6900 282° West 356 410 13,900 1,700 Climbing Cleveland Center
04:28PM 43.2642 -76.8225 284° West 356 410 15,600 1,650 Climbing Cleveland Center
04:29PM 43.2850 -76.9553 282° West 361 415 17,200 1,500 Climbing Cleveland Center
04:30PM 43.3056 -77.0856 282° West 361 415 18,600 1,550 Climbing Cleveland Center
04:31PM 43.2803 -77.2153 255° West 347 399 20,300 1,600 Climbing Cleveland Center
04:32PM 43.2611 -77.3475 259° West 347 399 21,800 1,500 Climbing Cleveland Center
04:33PM 43.2567 -77.4875 268° West 358 412 23,300 1,450 Climbing Cleveland Center
04:34PM 43.2561 -77.6272 270° West 370 426 24,700 1,400 Climbing Cleveland Center
04:35PM 43.2533 -77.7669 268° West 370 426 26,100 1,450 Climbing Cleveland Center
04:36PM 43.2503 -77.9039 268° West 370 426 27,600 1,450 Climbing Cleveland Center
04:37PM 43.2472 -78.0439 268° West 370 426 29,000 1,350 Climbing Cleveland Center
04:38PM 43.2439 -78.1808 268° West 365 420 30,300 1,150 Climbing Cleveland Center
04:39PM 43.2406 -78.3175 268° West 365 420 31,300 850 Climbing Cleveland Center
04:40PM 43.2369 -78.4603 268° West 370 426 32,000 750 Climbing Cleveland Center
04:41PM 43.2311 -78.6114 267° West 383 441 32,800 900 Climbing Cleveland Center
04:42PM 43.2294 -78.7625 269° West 395 455 33,800 600 Climbing Cleveland Center
04:43PM 43.2236 -78.9167 267° West 400 460 34,000 103 Climbing Cleveland Center
04:44PM 43.2167 -79.0333 265° West 420 483 34,000  Level Toronto Center
04:45PM 43.2000 -79.2000 262° West 420 483 34,000  Level Toronto Center
04:46PM 43.2000 -79.3667 270° West 420 483 34,000  Level Toronto Center
04:48PM 43.1833 -79.6833 266° West 420 483 34,000  Level Toronto Center
04:49PM 43.1833 -79.8333 270° West 420 483 34,000 250 Level Toronto Center
04:50PM 43.1667 -80.0000 262° West 420 483 34,500 700 Climbing Toronto Center
04:51PM 43.1667 -80.1667 270° West 410 472 35,400 750 Climbing Toronto Center
04:52PM 43.1667 -80.3167 270° West 410 472 36,000 300 Climbing Toronto Center
04:53PM 43.1500 -80.4833 262° West 420 483 36,000  Level Toronto Center
04:54PM 43.1500 -80.6333 270° West 430 495 36,000  Level Toronto Center
04:55PM 43.1500 -80.8000 270° West 430 495 36,000  Level Toronto Center
04:56PM 43.1167 -80.9500 253° West 430 495 36,000  Level Toronto Center
04:57PM 43.1167 -81.1167 270° West 430 495 36,000  Level Toronto Center
04:58PM 43.1000 -81.3000 263° West 430 495 36,000  Level Toronto Center
04:59PM 43.1000 -81.4333 270° West 420 483 36,000  Level Toronto Center
05:00PM 43.1000 -81.6167 270° West 420 483 36,000  Level Toronto Center
05:01PM 43.0833 -81.7500 260° West 420 483 36,000  Level Toronto Center
05:02PM 43.0667 -81.9167 262° West 420 483 36,000  Level Toronto Center
05:03PM 43.0667 -82.0833 270° West 410 472 36,000  Level Toronto Center
05:04PM 43.0500 -82.2333 261° West 400 460 36,000  Level Toronto Center
05:05PM 43.0500 -82.4000 270° West 410 472 36,000  Level Toronto Center
05:06PM 43.0500 -82.5500 270° West 420 483 36,000 -44 Level Toronto Center
05:07PM 43.0358 -82.7533 265° West 420 483 35,900 -489 Descending Cleveland Center
05:08PM 43.0267 -82.9064 265° West 420 483 34,900 -950 Descending Cleveland Center
05:09PM 43.0150 -83.0592 264° West 420 483 34,000 -1,000 Descending Cleveland Center
05:10PM 43.0033 -83.2122 264° West 415 478 32,900 -1,000 Descending Cleveland Center
05:11PM 42.9933 -83.3736 265° West 420 483 32,000 -450 Descending Cleveland Center
05:12PM 42.9808 -83.5375 264° West 425 489 32,000  Level Cleveland Center
05:13PM 42.9683 -83.7017 264° West 431 496 32,000  Level Cleveland Center
05:14PM 42.9533 -83.8681 263° West 442 509 32,000  Level Cleveland Center
05:15PM 42.9381 -84.0347 263° West 442 509 32,000  Level Cleveland Center
05:16PM 42.9225 -84.2011 263° West 442 509 32,000  Level Cleveland Center
05:18PM 42.8989 -84.4375 262° West 447 514 32,000  Level Chicago Center
05:19PM 42.8817 -84.6047 262° West 447 514 32,000  Level Chicago Center
05:20PM 42.8608 -84.8044 262° West 447 514 32,000  Level Chicago Center
05:21PM 42.8436 -84.9706 262° West 445 512 32,000  Level Chicago Center
05:22PM 42.8264 -85.1389 262° West 447 514 32,000  Level Chicago Center
05:23PM 42.8081 -85.3058 262° West 448 516 32,000 -435 Level Chicago Center
05:24PM 42.7892 -85.4739 261° West 448 516 31,100 -1,887 Descending Chicago Center
05:25PM 42.7611 -85.6408 257° West 450 518 28,100 -2,661 Descending Chicago Center
05:26PM 42.7308 -85.8061 256° West 448 516 25,600 -2,468 Descending Chicago Center
05:27PM 42.6997 -85.9736 256° West 452 520 23,000 -2,565 Descending Chicago Center
05:28PM 42.6656 -86.1622 256° West 433 498 20,300 -1,452 Descending Chicago Center
05:29PM 42.6369 -86.3183 256° West 426 490 20,000 -290 Descending Chicago Center
05:30PM 42.6083 -86.4669 255° West 411 473 19,700 -968 Descending Chicago Center
05:31PM 42.5800 -86.6153 256° West 405 466 18,000 -1,597 Descending Chicago Center
05:32PM 42.5528 -86.7644 256° West 407 468 16,400 -1,645 Descending Chicago Center
05:33PM 42.5119 -86.9044 248° West 405 466 14,600 -1,790 Descending Chicago Center
05:34PM 42.4753 -87.0369 249° West 384 442 12,700 -1,984 Descending Chicago Center
05:35PM 42.4331 -87.1889 249° West 365 420 10,500 -1,355 Descending Chicago Center
05:36PM 42.4017 -87.3086 250° West 342 394 9,900 -242 Descending Chicago Center
05:38PM 42.3725 -87.4106 249° West 302 348 10,000 48 Climbing Chicago Center
05:39PM 42.3433 -87.5156 249° West 301 346 10,000  Level Chicago Center
05:40PM 42.2767 -87.5994 223° Southwest 276 318 10,000 -145 Level Chicago Center
05:41PM 42.2158 -87.6664 219° Southwest 283 326 9,700 -629 Descending Chicago Center
05:42PM 42.1558 -87.7264 217° Southwest 273 314 8,700 -983 Descending Chicago Center
05:43PM 42.1000 -87.7833 217° Southwest 259 298 7,800 -842 Descending Chicago TRACON
05:44PM 42.0833 -87.8833 257° West 287 330 7,100 -368 Descending Chicago TRACON
05:44PM 42.0833 -87.9833 270° West 282 325 7,100 -250 Level Chicago TRACON
05:46PM 42.0833 -88.0833 270° West 241 277 6,600 -714 Descending Chicago TRACON
05:47PM 42.0833 -88.1667 270° West 235 270 5,600 -1,026 Descending Chicago TRACON
05:47PM 42.0800 -88.1939 261° West 239 275 5,300 -1,000 Descending Chicago Center
05:48PM 42.0739 -88.2836 265° West 241 277 4,300 -629 Descending Chicago Center
05:49PM 42.0669 -88.3700 264° West 238 274 4,000 -145 Descending Chicago Center
05:50PM 42.0397 -88.4242 236° Southwest 205 236 4,000  Level Chicago Center
05:51PM 41.9964 -88.4242 180° South 170 196 4,000  Level Chicago Center
05:52PM 41.9819 -88.3683 109° East 164 189 4,000  Level Chicago Center
05:53PM 41.9822 -88.3089 90° East 161 185 4,000 -48 Level Chicago Center
05:54PM 41.9822 -88.2475 90° East 163 188 3,900 -48 Descending Chicago Center
05:55PM 41.9828 -88.1847 89° East 165 190 3,900 -194 Level Chicago Center
05:56PM 41.9833 -88.1117 89° East 165 190 3,500 -434 Descending Chicago Center
05:56PM 41.9833 -88.0833 90° East 167 192 3,300 -818 Descending Chicago TRACON
05:58PM 41.9833 -88.0167 90° East 155 178 2,300 -767 Descending Chicago TRACON
05:59PM 41.9833 -87.9667 90° East 123 142 1,600 -636 Descending Chicago TRACON